FZWI weather

Kashia Airport
Kashia, Kasai-Oriental Province, Congo (Kinshasa)

Public forecast

Using degrees Celsius for public forecast. Weather courtesy of forecast.io.

METAR (pilot weather report)

Closest report is Mbuji Mayi Airport, 66.7 nm (123.5 km) N. Retrieved 2019/05/22 09:00 UTC (10 minutes ago):

FZWA 220900Z 09002KT 9999 FEW020 SCT110 BKN300 28/21 Q1016 NOSIG

TAF (pilot weather forecast)

Forecast is more than 12 hours old.

Closest forecast is Mbuji Mayi Airport, 66.7 nm (123.5 km) N. Retrieved 2019/05/03 12:00 UTC (19 days ago):

TAF FZWA 031100Z 0312/0418 16010KT 9999 FEW022 FEW030CB TEMPO 0313/0319 TS PROB30 TEMPO 0315/0318 6000 -TSRA BECMG 0320/0322 00000KT SCT014 BECMG 0406/0408 20008KT FEW018